Content
SEND FEEDBACK

Daily
Averages
Monthly
Summary
United States of America

VENTRESS, LOUISIANA


Home > North America > United States > Louisiana
Elevation: 4 feet     Latitude: 30 41N     Longitude: 091 22W

WEATHER
 
SELECT A DAY
Number of Records: 200,371;   Date Range: 1/1/95 - 7/22/14
 
SHARE

PRINT THIS DATA

[ ← Previous Day ]
WEATHER ALMANAC - FEBRUARY 5, 2013
[ Next Day → ]
[ °C ]   °F
Weather ElementAverageHighLow
Temperature59.7 °F71.1 °F (2:53 pm)53.1 °F (11:53 pm)
Dewpoint56.6 °F59 °F (9:53 am)53.1 °F (10:53 pm)
Humidity90.7 %100 % (12:53 am)63 % (2:53 pm)
Barometer29.99 in30.04 in (11:53 pm)29.94 in (12:53 am)
Wind Speed2.1 mph5.8 mph (9:53 am)
Weather ElementAverage
Visibility5.2 mi
Wind DirectionENE (51.6 °)

Weather ElementTotal
Precipitation---
Heating Degree Days2.9 (Base 65)
Growing Degree Days12.1 (Base 50)
Averaged from 32 records on February 5, 2013
WEATHER CONDITIONS BREAKOUT
WIND DIRECTION BREAKOUT
WEATHER BY HOUR - FEBRUARY 5, 2013
[ °C ]   °F
Local TimeTemperatureDewpointHumidityBarometerVisibilityWind DirectionWind SpeedGust SpeedPrecipitationEventsConditions
12:53 AM55.0 °F55.0 °F100 %29.94 in0.2 miCalm0.00 inFog-RainLight Rain
1:53 AM55.0 °F55.0 °F100 %29.95 in0.2 miCalm0.00 inFog-RainLight Rain
2:53 AM55.0 °F55.0 °F100 %29.95 in0.2 miCalm0.00 inFog-RainLight Rain
3:53 AM55.0 °F55.0 °F100 %29.94 in0.5 miENE (70°)3.5 mph0.00 inFog-RainLight Rain
4:53 AM55.0 °F55.0 °F100 %29.94 in0.5 miCalm0.00 inFog-RainLight Rain
5:53 AM55.0 °F55.0 °F100 %29.96 in0.5 miNE (40°)4.6 mph0.00 inFog-RainLight Rain
6:53 AM55.0 °F55.0 °F100 %29.97 in0.2 miESE (120°)3.5 mph0.00 inFogFog
7:53 AM57.0 °F57.0 °F100 %29.99 in0.2 miESE (110°)4.6 mphFogFog
8:53 AM57.0 °F57.0 °F100 %30.00 in0.8 miESE (120°)4.6 mphMist
9:01 AM57.2 °F57.2 °F100 %30.00 in1.0 miEast (90°)4.6 mphMist
9:30 AM57.2 °F57.2 °F100 %30.01 in2.5 miEast (80°)4.6 mphOvercast
9:45 AM57.2 °F57.2 °F100 %30.02 in4.0 miEast (90°)4.6 mphOvercast
9:53 AM59.0 °F59.0 °F100 %30.02 in6.0 miEast (90°)5.8 mphOvercast
10:53 AM59.0 °F59.0 °F100 %30.03 in8.0 miCalmOvercast
11:03 AM60.8 °F59.0 °F94 %30.03 in10.0 miEast (80°)4.6 mphOvercast
11:27 AM60.8 °F57.2 °F88 %30.03 in10.0 miCalmOvercast
11:53 AM62.1 °F59.0 °F90 %30.02 in10.0 miCalmMostly Cloudy
12:22 PM66.2 °F59.0 °F78 %30.01 in10.0 miNorth (10°)3.5 mphOvercast
12:53 PM66.0 °F59.0 °F78 %30.00 in10.0 miVariable4.6 mphOvercast
1:00 PM66.2 °F59.0 °F78 %30.00 in10.0 miCalmMostly Cloudy
1:53 PM69.1 °F57.9 °F68 %29.98 in10.0 miCalmMostly Cloudy
2:53 PM71.1 °F57.9 °F63 %29.96 in10.0 miCalmScattered Clouds
3:53 PM70.0 °F57.0 °F63 %29.96 in10.0 miCalmScattered Clouds
4:53 PM70.0 °F57.0 °F63 %29.97 in10.0 miNNW (330°)3.5 mphScattered Clouds
5:53 PM64.9 °F57.9 °F78 %29.97 in7.0 miCalmClear
6:53 PM61.0 °F57.9 °F90 %29.99 in6.0 miNNW (330°)3.5 mphClear
7:53 PM57.9 °F55.9 °F93 %30.01 in4.0 miCalmClear
8:53 PM57.0 °F55.0 °F93 %30.02 in3.0 miCalmClear
9:46 PM55.4 °F53.6 °F94 %30.03 in2.0 miCalmClear
9:53 PM55.9 °F54.0 °F93 %30.03 in8.0 miCalmClear
10:53 PM54.0 °F53.1 °F97 %30.03 in8.0 miENE (70°)3.5 mphClear
11:53 PM53.1 °F53.1 °F100 %30.04 in3.0 miNNE (20°)3.5 mphClear
Hourly data recorded from KBTR, located miles away from Ventress, Louisiana







STORIES FROM OUR PARTNERS